Location: Glencliff
(36.1226°N, 86.7183°W)
Time: 23:29:16
(UTC+00:00)

Shenzhou-11 Module - Pass Details

Date: 25 August 2019
Orbit: 317 x 330 km, 42.8° (Epoch: 16 September)

Event Time Altitude Azimuth Distance (km) Brightness Sun altitude
Rises 01:29:32 0° 287° (WNW) 2,076 7.7 -13.0°
Reaches altitude 10° 01:31:51 10° 305° (NW) 1,239 6.0 -13.4°
Maximum altitude 01:34:00 20° 356° (N) 831 4.1 -13.8°
Enters shadow 01:36:04 11° 46° (NE) 1,208 4.4 -14.2°
